Hovedside
METAR-TAF:

METAR-TAF

Lufthavner :

Pärnu, Estland

Pärnu lufthavn

breddegrad: 58-25-09N, lengdegrad: 024-28-22E, høyde over havet: 14 m

Gjeldene værobservasjon

Denne rapporten ble laget for 6 timer og 8 minutter siden, klokken 12:50 UTC
Vind 6 kt fra Øst-nordøst, skiftende mellom Nord-nordøst og Øst-sørøst
Temperatur 17°C
Luftfuktighet 72%
Trykk 1022 hPa
Sikt 10 km eller mer
Spredte skyer i en høyde av 2100 ft

METAR: EEPU 221250Z 07006KT 020V120 9999 SCT021 17/12 Q1022

Tid: 21:58 (18:58 UTC)


TAF: fraværende

Værobservasjoner og værvarsel for over 4000 flyplasser (METAR- og TAF-rapporter).

Tilgjengelige stasjoner er representert av de røde og gule prikkene på kartet.

Hold musepekeren over prikken for å se navnet på stasjonen.

Klikk så for å se værobservasjoner og -varsler.

For å forandre kartet kan du klikke på den grønne knappen med svart kryss for å zoome inn, på den grønne knappen med strek for å zoome ut, eller på de grønne pilene for å se tilstøtende kart.


METAR-TAF: